When you browse on this site, cookies collect data to enhance your experience and personalize the content and advertising you see.
Visit our Privacy Policy to learn more. By continuing to use the site, you agree to this use of cookies and data.
  • Em Portugal
  • Lista de países
  • Para 7 dias
  • Temperatura da água
  • Mapa do tempo
  • Widgets de tempo
  • user-avatar
    Iniciar Sessão

    Previsão horária em Salzburgo

    Hoje, 29 Fevereiro, Sábado

    Tempo Temperatura Precipitação Vento Pressão Humidade
    00:00 -12°C° 0 mm 3 m/s 622 mmHg 71%
    01:00 -12°C° 0 mm 3 m/s 622 mmHg 69%
    02:00 -12°C° 0 mm 3 m/s 621 mmHg 70%
    03:00 -12°C° 0 mm 3 m/s 621 mmHg 71%
    04:00 -10°C° 0 mm 3 m/s 620 mmHg 72%
    05:00 -10°C° 0 mm 3 m/s 620 mmHg 73%
    06:00 -10°C° 0 mm 3 m/s 620 mmHg 74%
    07:00 -9°C° 0 mm 3 m/s 619 mmHg 74%
    08:00 -8°C° 0 mm 3 m/s 619 mmHg 76%
    09:00 -6°C° 0 mm 3 m/s 619 mmHg 78%
    10:00 -5°C° 0 mm 3 m/s 619 mmHg 80%
    11:00 -4°C° 0 mm 3 m/s 619 mmHg 83%
    12:00 -2°C° 0 mm 3 m/s 619 mmHg 85%
    13:00 -2°C° 0 mm 4 m/s 618 mmHg 88%
    14:00 -2°C° 0 mm 3 m/s 618 mmHg 87%
    15:00 -2°C° 0 mm 3 m/s 617 mmHg 85%
    16:00 -2°C° 0 mm 3 m/s 616 mmHg 84%
    17:00 -5°C° 0 mm 3 m/s 616 mmHg 83%
    18:00 -6°C° 0 mm 3 m/s 616 mmHg 83%
    19:00 -8°C° 0 mm 3 m/s 615 mmHg 83%
    20:00 -8°C° 0 mm 3 m/s 615 mmHg 83%
    21:00 -8°C° 0 mm 3 m/s 615 mmHg 83%
    22:00 -9°C° 0 mm 3 m/s 615 mmHg 83%
    23:00 -9°C° 0 mm 3 m/s 615 mmHg 83%

    Amanhã, 1 Março, Domingo

    Tempo Temperatura Precipitação Vento Pressão Humidade
    00:00 -9°C° 0 mm 3 m/s 615 mmHg 83%
    01:00 -8°C° 0 mm 2 m/s 615 mmHg 83%
    02:00 -7°C° 0 mm 2 m/s 615 mmHg 83%
    03:00 -7°C° 0 mm 2 m/s 615 mmHg 84%
    04:00 -7°C° 0 mm 2 m/s 615 mmHg 84%
    05:00 -7°C° 0 mm 2 m/s 615 mmHg 84%
    06:00 -7°C° 0 mm 1 m/s 615 mmHg 84%
    07:00 -7°C° 0 mm 1 m/s 614 mmHg 85%
    08:00 -4°C° 0 mm 1 m/s 615 mmHg 87%
    09:00 -3°C° 0 mm 1 m/s 616 mmHg 90%
    10:00 -2°C° 0 mm 0 m/s 616 mmHg 93%
    11:00 -2°C° 0.4 mm 0 m/s 616 mmHg 95%
    12:00 -1°C° 0.4 mm 1 m/s 615 mmHg 97%
    13:00 -1°C° 0.4 mm 1 m/s 615 mmHg 99%
    14:00 -1°C° 0.9 mm 1 m/s 615 mmHg 98%
    15:00 -1°C° 0.9 mm 1 m/s 614 mmHg 98%
    16:00 -1°C° 0.9 mm 1 m/s 614 mmHg 97%
    17:00 -2°C° 0.2 mm 1 m/s 614 mmHg 97%
    18:00 -3°C° 0.2 mm 1 m/s 613 mmHg 96%
    19:00 -4°C° 0.2 mm 1 m/s 613 mmHg 95%
    20:00 -6°C° 0 mm 1 m/s 612 mmHg 94%
    21:00 -6°C° 0 mm 1 m/s 612 mmHg 93%
    22:00 -7°C° 0 mm 2 m/s 611 mmHg 92%
    23:00 -7°C° 0 mm 2 m/s 611 mmHg 91%

    Depois de amanhã, 2 Março, Segunda-feira

    Tempo Temperatura Precipitação Vento Pressão Humidade
    00:00 -7°C° 0 mm 2 m/s 611 mmHg 90%
    01:00 -7°C° 0 mm 2 m/s 610 mmHg 89%
    02:00 -7°C° 0.6 mm 2 m/s 610 mmHg 91%
    03:00 -7°C° 0.6 mm 2 m/s 610 mmHg 94%
    04:00 -6°C° 0.6 mm 2 m/s 611 mmHg 97%
    05:00 -6°C° 1 mm 1 m/s 611 mmHg 95%
    06:00 -6°C° 1 mm 1 m/s 611 mmHg 93%
    07:00 -6°C° 1 mm 1 m/s 611 mmHg 92%
    08:00 -4°C° 0 mm 1 m/s 611 mmHg 91%
    09:00 -3°C° 0 mm 1 m/s 612 mmHg 90%
    10:00 -1°C° 0 mm 1 m/s 612 mmHg 89%
    11:00 -1°C° 0 mm 1 m/s 612 mmHg 89%
    12:00 0°C° 0 mm 1 m/s 612 mmHg 90%
    13:00 +1°C° 0 mm 1 m/s 612 mmHg 91%
    14:00 -1°C° 0 mm 2 m/s 612 mmHg 91%
    15:00 -1°C° 0 mm 2 m/s 611 mmHg 92%
    16:00 -1°C° 0 mm 2 m/s 611 mmHg 93%
    17:00 -3°C° 0 mm 2 m/s 611 mmHg 91%
    18:00 -4°C° 0 mm 2 m/s 610 mmHg 90%
    19:00 -5°C° 0 mm 2 m/s 610 mmHg 88%
    20:00 -5°C° 0 mm 2 m/s 610 mmHg 88%
    21:00 -6°C° 0 mm 2 m/s 610 mmHg 88%
    22:00 -6°C° 0 mm 2 m/s 610 mmHg 87%
    23:00 -6°C° 0 mm 2 m/s 610 mmHg 87%

    3 Março, Terça-feira

    Tempo Temperatura Precipitação Vento Pressão Humidade
    00:00 -4°C° 0 mm 1 m/s 610 mmHg 88%
    01:00 -4°C° 0 mm 1 m/s 610 mmHg 88%
    02:00 -4°C° 0.1 mm 1 m/s 610 mmHg 90%
    03:00 -4°C° 0.1 mm 1 m/s 610 mmHg 92%
    04:00 -4°C° 0.1 mm 1 m/s 610 mmHg 94%
    05:00 -4°C° 0.7 mm 1 m/s 610 mmHg 95%
    06:00 -4°C° 0.7 mm 1 m/s 611 mmHg 96%
    07:00 -3°C° 0.7 mm 1 m/s 611 mmHg 98%
    08:00 -3°C° 1.3 mm 1 m/s 612 mmHg 98%
    09:00 -2°C° 1.3 mm 1 m/s 613 mmHg 98%
    10:00 -2°C° 1.3 mm 1 m/s 613 mmHg 98%
    11:00 -2°C° 1.2 mm 1 m/s 614 mmHg 99%
    12:00 -4°C° 1.2 mm 2 m/s 614 mmHg 99%
    13:00 -4°C° 1.2 mm 2 m/s 614 mmHg 99%
    14:00 -4°C° 0.7 mm 2 m/s 615 mmHg 98%
    15:00 -4°C° 0.7 mm 2 m/s 615 mmHg 98%
    16:00 -4°C° 0.7 mm 2 m/s 615 mmHg 97%
    17:00 -5°C° 0.4 mm 2 m/s 615 mmHg 97%
    18:00 -5°C° 0.4 mm 2 m/s 616 mmHg 98%
    19:00 -4°C° 0.4 mm 1 m/s 616 mmHg 98%
    20:00 -4°C° 0.3 mm 1 m/s 616 mmHg 98%
    21:00 -4°C° 0.3 mm 1 m/s 617 mmHg 98%
    22:00 -6°C° 0.3 mm 1 m/s 617 mmHg 98%
    23:00 -6°C° 0.2 mm 1 m/s 617 mmHg 98%

    4 Março, Quarta-feira

    Tempo Temperatura Precipitação Vento Pressão Humidade
    00:00 -6°C° 0.2 mm 1 m/s 617 mmHg 98%
    01:00 -6°C° 0.2 mm 1 m/s 616 mmHg 97%
    02:00 -7°C° 0.1 mm 1 m/s 616 mmHg 97%
    03:00 -7°C° 0.1 mm 1 m/s 616 mmHg 97%
    04:00 -8°C° 0.1 mm 1 m/s 616 mmHg 97%
    05:00 -8°C° 0.1 mm 1 m/s 615 mmHg 97%
    06:00 -9°C° 0.1 mm 0 m/s 615 mmHg 97%
    07:00 -9°C° 0.1 mm 0 m/s 615 mmHg 97%
    08:00 -8°C° 0 mm 0 m/s 615 mmHg 95%
    09:00 -6°C° 0 mm 0 m/s 615 mmHg 94%
    10:00 -4°C° 0 mm 0 m/s 616 mmHg 92%
    11:00 -4°C° 0 mm 0 m/s 615 mmHg 92%
    12:00 -3°C° 0 mm 0 m/s 615 mmHg 92%
    13:00 -2°C° 0 mm 0 m/s 615 mmHg 92%
    14:00 -2°C° 0 mm 0 m/s 615 mmHg 92%
    15:00 -2°C° 0 mm 0 m/s 614 mmHg 91%
    16:00 -2°C° 0 mm 0 m/s 614 mmHg 90%
    17:00 -3°C° 0 mm 0 m/s 614 mmHg 92%
    18:00 -4°C° 0 mm 0 m/s 614 mmHg 94%
    19:00 -5°C° 0 mm 0 m/s 615 mmHg 95%
    20:00 -6°C° 0 mm 0 m/s 615 mmHg 95%
    21:00 -6°C° 0 mm 1 m/s 615 mmHg 94%
    22:00 -6°C° 0 mm 1 m/s 615 mmHg 94%
    23:00 -6°C° 0.1 mm 1 m/s 615 mmHg 94%

    5 Março, Quinta-feira

    Tempo Temperatura Precipitação Vento Pressão Humidade
    00:00 -6°C° 0.1 mm 1 m/s 615 mmHg 94%
    01:00 -6°C° 0.1 mm 1 m/s 615 mmHg 94%
    02:00 -4°C° 0.5 mm 1 m/s 615 mmHg 95%
    03:00 -4°C° 0.5 mm 1 m/s 615 mmHg 96%
    04:00 -4°C° 0.5 mm 1 m/s 615 mmHg 97%
    05:00 -4°C° 0.7 mm 1 m/s 616 mmHg 97%
    06:00 -4°C° 0.7 mm 1 m/s 616 mmHg 98%
    07:00 -4°C° 0.7 mm 1 m/s 616 mmHg 98%
    08:00 -3°C° 0.4 mm 1 m/s 617 mmHg 96%
    09:00 -2°C° 0.4 mm 1 m/s 617 mmHg 94%
    10:00 -2°C° 0.4 mm 1 m/s 617 mmHg 92%
    11:00 -1°C° 0.1 mm 1 m/s 617 mmHg 93%
    12:00 -1°C° 0.1 mm 1 m/s 617 mmHg 93%
    13:00 -1°C° 0.1 mm 1 m/s 617 mmHg 94%
    14:00 -1°C° 0.1 mm 1 m/s 617 mmHg 94%
    15:00 -1°C° 0.1 mm 1 m/s 616 mmHg 93%
    16:00 -1°C° 0.1 mm 1 m/s 616 mmHg 93%
    17:00 -2°C° 0 mm 1 m/s 615 mmHg 93%
    18:00 -4°C° 0 mm 1 m/s 615 mmHg 93%
    19:00 -6°C° 0 mm 1 m/s 614 mmHg 93%
    20:00 -7°C° 0 mm 2 m/s 614 mmHg 92%
    21:00 -7°C° 0 mm 2 m/s 614 mmHg 91%
    22:00 -7°C° 0 mm 2 m/s 614 mmHg 91%
    23:00 -7°C° 0 mm 2 m/s 613 mmHg 90%
    Mostrar mais